Regional Weather Roundup
Issued by NWS Wakefield, VA

Home | Current Version | Previous Version | Text Only | Print | Product List | Glossary On
Versions: 1 2 3 4 5 6 7 8 9 10 11 12 13 14 15 16 17 18 19 20 21 22 23 24 25 26 27 28
000
ASUS41 KAKQ 250715
RWRAKQ

REGIONAL WEATHER ROUNDUP
NATIONAL WEATHER SERVICE WAKEFIELD VA
300 AM EDT TUE JUL 25 2017

Note: "fair" indicates few or no clouds below 12,000 feet with no
significant weather and/or obstructions to visibility. * = Denotes
station may not report precipitation (e.g., rain,snow,etc.),
thunder or fog.

VAZ042-051-052>054-056-250800-
NORTHERN VIRGINIA

CITY           SKY/WX    TMP DP  RH WIND       PRES   REMARKS
WASH NATIONAL  CLOUDY    77  63  61 N16       29.97R
DULLES         MOCLDY    74  60  61 N9        29.98R
FORT BELVOIR   FAIR      76  61  59 NW7       29.97R
QUANTICO       FAIR      78  66  66 N13       29.97R
FREDERICKSBRG* FAIR      77  67  71 MISG      29.96R
STAFFORD*      FAIR      75  64  70 N7G16     30.01R
WARRENTON      FAIR      73  64  71 N5        29.98R
CULPEPER*      FAIR      74  65  72 N8        29.99R
MANASSAS*      NOT AVBL
LEESBURG*      FAIR      73  63  68 N9        30.00R
WINCHESTER     FAIR      66  55  68 N5        30.02R
FRONT ROYAL*   FAIR      70  63  78 CALM      30.00S
LURAY*         FAIR      73  64  73 N6        30.00R
$$

VAZ048-049-060>072-079>083-250800-
CENTRAL AND SOUTH CENTRAL VIRGINIA

CITY           SKY/WX    TMP DP  RH WIND       PRES   REMARKS
RICHMOND       FAIR      78  69  73 N8        29.95R
CHESTERFIELD*  NOT AVBL
PETERSBURG*    MOCLDY    71  67  87 CALM      29.95R
HANOVER        FAIR      77  66  68 VRB5      29.97R
TAPPAHANNOCK*  FAIR      76  65  67 CALM      29.95R
QUINTON*       FAIR      73  73  99 CALM      29.94R
CHARLOTTSVILLE FAIR      77  64  64 N3        29.97R
GORDONSVILLE*  FAIR      71  67  86 CALM      29.97R
ORANGE*        FAIR      72  64  78 CALM      29.97R
LOUISA*        FAIR      73  64  73 N5        29.98R
BUMPASS*       FAIR      75  68  78 N3        29.97R
FARMVILLE*     FAIR      76  62  61 CALM      29.96S
CREWE*         FAIR      74  69  83 NW3       29.95S
FORT PICKETT*  FAIR      73  69  86 NW3       29.96R
CHASE CITY*    FAIR      72  72  99 CALM      29.98R
CLARKSVILLE*   FAIR      72  72 100 S3        29.97S
SOUTH HILL*    FAIR      74  71  90 CALM      30.02S
LAWRENCEVILLE* FAIR      73  69  87 CALM      29.96R
EMPORIA*       FAIR      75  72  88 CALM      29.97R
$$

VAZ088>098-250800-
SOUTHEAST VIRGINIA

CITY           SKY/WX    TMP DP  RH WIND       PRES   REMARKS
NORFOLK        CLOUDY    81  75  82 SW8       29.92R
VIRGINIA BEACH FAIR      79  73  82 SW10      29.92R
NORFOLK NAVAL  FAIR      81  74  79 SW7       29.93R
WEST POINT*    FAIR      78  69  72 W3        29.94S
SALUDA*        FAIR      81  73  78 NW10G16   29.91S
NEWPORT NEWS   FAIR      80  74  81 W9        29.93R
LANGLEY AFB    FAIR      80  76  86 W12       29.92R
FORT EUSTIS    FAIR      79  74  84 CALM      29.91R
WILLIAMSBURG*  FAIR      81  72  74 CALM      29.94R
HR EXEC AP*    FAIR      77  72  83 SW5       29.91R
FRANKLIN*      FAIR     N/A N/A N/A CALM      29.94S
US460-WAKEFLD  FAIR      77  74  90 W3        29.94R
$$

VAZ020-022-025-037-045-250800-
WEST CENTRAL AND SOUTHWEST VIRGINIA

CITY           SKY/WX    TMP DP  RH WIND       PRES   REMARKS
STAUNTON*      FAIR      67  62  83 CALM      30.03S
WAYNESBORO*    FAIR      72  64  77 NW6       30.02S
HOT SPRINGS VA FAIR      63  61  94 W10G20    30.14S
LYNCHBURG      FAIR     N/A N/A N/A CALM      30.00R
DANVILLE       FAIR      70  70 100 CALM      29.98S
SOUTH BOSTON*  FAIR      71  70  96 CALM      29.98R
MARTINSVILLE   FAIR      67  67  97 CALM      30.03S FOG
ROANOKE        FAIR      75  66  73 NW7       30.04S
BLACKSBURG     FAIR      70  65  85 CALM      30.12S
DUBLIN*        FAIR      71  62  74 W3        30.10F
MARION*        FOG       67  64  88 W3        30.15S VSB 1/4
HILLSVILLE*    FAIR      69  63  79 CALM      30.11F
RICHLANDS*     FOG       66  64  94 CALM      30.14F VSB<1/4
WISE*          FAIR      66  66 100 CALM      30.15S FOG
ABINGDON*      FAIR      70  68  94 CALM      30.11S
$$

MDZ021>025-VAZ099-100-250800-
SOUTHERN MARYLAND AND THE DELMARVA PENINSULA

CITY           SKY/WX    TMP DP  RH WIND       PRES   REMARKS
PATUXENT RIVER FAIR      78  71  79 N17       29.93R
BAY BRIDGE APT FAIR      77  64  65 N10G18    29.94S
LEONARDTOWN    FAIR      77  68  73 CALM      29.96R
DOVER          CLEAR     70  70 100 CALM      29.91S
GEORGETOWN     MOCLDY    72  69  90 CALM      29.93S
EASTON         FAIR      73  70  90 CALM      29.98R
CAMBRIDGE      CLEAR     73  72  94 NE5       29.93R
SALISBURY      NOT AVBL
OCEAN CITY     MOCLDY    71  70  96 N6        29.90F
WALLOPS ISLAND FAIR      78  76  93 N9        29.90R
ACCOMACK*      FAIR      81  75  83 W7        29.90R
$$

NCZ012>017-030>032-250800-
NORTH CENTRAL AND EASTERN NORTH CAROLINA

CITY           SKY/WX    TMP DP  RH WIND       PRES   REMARKS
ROANOKE RAPIDS FAIR      77  75  94 SW3       29.96R
RALEIGH        MOCLDY    77  75  93 SW5       29.98S
ELIZABETH CITY FAIR      79  77  94 SW8       29.94S
AHOSKIE*         N/A     74  73  98 CALM      29.96R FOG
EDENTON*       FAIR      82  76  81 CALM      29.96S
CURRITUCK*     FAIR      78  78 100 SW5       29.95R
KILL DEVIL HLS FAIR      80  77  90 W7        29.93F
MANTEO         FAIR      80  77  91 W10       29.95S
CAPE HATTERAS  FAIR      78  76  93 SW10      29.96F
TARBORO*       NOT AVBL
GOLDSBORO      FAIR      77  77 100 SW7       29.97R
WASHINGTON     FAIR      78  76  92 SW5       29.97S
GREENVILLE     FAIR      79  77  94 SW5       29.99R
NEW BERN       FAIR      77  74  90 SW8       29.99S
WILMINGTON     FAIR      76  73  91 W3        30.00S
$$

VAZ048-250800-
ELSEWHERE

CITY           SKY/WX    TMP DP  RH WIND       PRES   REMARKS
HARRISBURG PA  NOT AVBL
BALTIMORE      FAIR      70  68  93 NW5       29.96R
ANNAPOLIS      FAIR      77  70  79 N9        29.94R
ANDREWS AFB    FAIR      74  65  74 N8        29.96R
PHILADELPHIA   CLOUDY    67  65  93 NE7       29.95S
HENDERSON NC   FAIR      73  68  84 W3        29.98F
GREENSBORO     MOCLDY    74  70  87 W5        30.00S
ROCKY MOUNT    FAIR      77  76  96 S5        29.97R
$$

VAZ100-250800-
MARINE

STATION/POSITION TIME  TEMP    WIND        PRES    WAVE   SWELL
                       AIR SEA DIR/SP/G            HT/PER HT/PER
                 (UTC) (F)     (DEG/KT/KT) (MB)    (FT/S) (FT/S)
BRANDYWINE LGT   0636           80/  7/  8 1013.5R
CAPE MAY NJ      0636           70/  3/  6 1012.4S
LEWES DE         0636          310/  4/  4 1012.9R
15NM E FENWICK I 0650   74 78  360/ 16/ 17 1012.9R   4/ 7   2/ 7
OCEAN-CITY-INLET 0636           10/  3/  5 1013.2R
WACHAPREAGUE VA  0636          230/  4/  6 1012.3R
THOMAS POINT MD  0700   76 82  350/ 17/ 18   N/A
GOOSES REEF MD   0650   80      50/ 17/ 23 1014.5R
COVE POINT MD    0636           30/ 21/ 26 1014.0R
SOLOMONS ISLAND  0636           10/  9/ 13   N/A
BISHOPS HEAD MD  0636           30/ 11/ 14 1013.1R
PINEY POINT MD   0648           30/ 10/ 13   N/A
POTOMAC MD       0650   81      10/ 16/ 19 1012.2R
CAMBRIDGE MD     0636                      1014.0F
LEWISETTA VA     0636           30/ 11/ 18 1013.2R
RAPPAHANNOCK LGT 0636          260/ 16/ 18 1013.0R
STINGRAY PT      0650   83     340/ 14/ 17 1012.7R
YORK RVR RNG VA  0636          280/ 14/ 16 1013.1R
YORKTOWN VA      0636          250/ 11/ 13 1012.6R
JAMESTOWN VA     0650          290/ 12/ 16   N/A
DOMINION TERM VA 0636          250/ 12/ 14 1013.1R
KIPTOPEKE VA     0648          250/  9/ 10   N/A
CHES BAY BRIDGE  0636          240/ 14/ 15 1012.7R
CAPE HENRY VA    0636          230/  9/ 14   N/A
WILLOUBY STN VA  0636          230/ 13/ 14 1012.9R
S CRANEY ISL VA  0636          230/  7/  9 1012.9R
CAPE HENRY BUOY  0700      64                N/A     2/10
1ST LANDING BUOY 0650   79                 1012.9R
64NM E OF VA BCH 0650   79 78  240/ 12/ 14 1013.7S   4/ 7   3/ 7
DUCK PIER NC     0636          250/ 11/ 16 1013.5F
44100 DUCK FRF   0605      78                N/A     3/ 6
44056 DUCK FRF   0700      72                N/A     2/11
OREGON INLET NC  0642          220/ 12/ 15 1014.0R
HATTERAS NC      0642          230/  8/ 14 1014.7F
DIAMOND SHLS NC  0650   82 84  240/ 19/ 25 1014.6F   6/ 6   2/10
CAPE LOOKOUT NC  0700   80     250/ 10/ 12 1015.2F
$$




USA.gov is the U.S. government's official web portal to all federal, state and local government web resources and services.